This demonstration page uses our WeatherBlox Daily Observations layout. Learn more.

Hourly Observations for December 4, 2017

Temp ( °F °C ) Dew Point ( °F °C ) Humidity (%) Winds ( mph kmh ) Pressure ( in mb ) Visibility ( mi km ) Precip ( " mm )
12:54 am 00:54 Clear 61 16.1 54 12.2 78 78 S 16 26 29.47 998 10 16.0934 0 0
1:54 am 01:54 Clear 62 16.7 54 12.2 75 75 S 15 24 29.44 997 10 16.0934 0 0
2:54 am 02:54 Clear 62 16.7 54 12.2 75 75 S 16 26 29.43 997 10 16.0934 0 0
3:54 am 03:54 Clear 62 16.7 54 12.2 75 75 SSW 16 26 29.4 996 10 16.0934 0 0
4:54 am 04:54 Clear 63 17.2 54 12.2 73 73 S 15 24 29.38 995 10 16.0934 0 0
5:54 am 05:54 Clear 63 17.2 54 12.2 73 73 SSW 13 20 29.39 995 10 16.0934 0 0
6:54 am 06:54 Clear 61 16.1 53 11.7 75 75 SW 13 20 29.39 995 10 16.0934 0 0
7:54 am 07:54 Sunny 58 14.4 46 7.8 65 65 WSW 20 31 29.41 996 10 16.0934 0 0
8:54 am 08:54 Sunny 50 10 42 5.6 74 74 W 10 17 29.46 998 10 16.0934 0 0
9:54 am 09:54 Sunny 50 10 39 3.9 66 66 WNW 22 35 29.5 999 10 16.0934 0 0
10:54 am 10:54 Sunny 49 9.4 33 0.6 55 55 NW 25 41 29.57 1001 10 16.0934 0 0.0254
11:54 am 11:54 Sunny 51 10.6 32 0 48 48 WNW 20 31 29.57 1001 10 16.0934 0 0
12:54 pm 12:54 Sunny 52 11.1 31 -0.6 45 45 WNW 21 33 29.58 1002 10 16.0934 0 0
1:54 pm 13:54 Mostly Cloudy 50 10 30 -1.1 46 46 NW 30 48 29.62 1003 10 16.0934 0 0
2:54 pm 14:54 Mostly Cloudy 47 8.3 30 -1.1 52 52 WNW 26 43 29.69 1005 10 16.0934 0 0
3:54 pm 15:54 Mostly Cloudy 43 6.1 27 -2.8 53 53 WNW 31 50 29.76 1008 10 16.0934 0 0
4:54 pm 16:54 Cloudy 40 4.4 25 -3.9 55 55 WNW 31 50 29.83 1010 10 16.0934 0 0
5:54 pm 17:54 Mostly Cloudy 37 2.8 23 -5 57 57 NW 32 52 29.89 1012 10 16.0934 0 0
6:54 pm 18:54 Partly Cloudy 32 0 20 -6.7 61 61 NW 25 41 29.97 1015 10 16.0934 0 0
7:22 pm 19:22 Mostly Cloudy 32 0 21 -6.1 64 64 NW 21 33 30.06 1018 10 16.0934 0 0
7:54 pm 19:54 Cloudy 32 0 20 -6.7 61 61 NW 33 54 30.03 1017 10 16.0934 0 0
8:12 pm 20:12 Cloudy 31 -0.6 19 -7.2 61 61 NW 26 43 30.09 1019 10 16.0934 0 0
8:54 pm 20:54 Clear 30 -1.1 15 -9.4 54 54 NW 21 33 30.09 1019 10 16.0934 0 0
9:54 pm 21:54 Clear 30 -1.1 12 -11.1 47 47 NW 20 31 30.11 1020 10 16.0934 0 0
10:54 pm 22:54 Clear 29 -1.7 12 -11.1 49 49 NW 18 30 30.12 1020 10 16.0934 0 0
11:54 pm 23:54 Clear 28 -2.2 12 -11.1 51 51 WNW 16 26 30.16 1022 10 16.0934 0 0

Powered by AerisWeather